Regional Weather Roundup
Issued by NWS

Home | Current Version | Previous Version | Text Only | Print | Product List | Glossary Off
Versions: 1 2 3 4 5 6 7 8 9 10 11 12 13 14 15 16 17 18 19 20 21 22 23 24 25 26 27 28 29 30 31 32 33 34 35 36 37 38 39 40 41 42 43 44 45 46 47 48 49 50

000
ASUS43 KMKX 212011
RWRWI

WISCONSIN REGIONAL WEATHER ROUNDUP
NATIONAL WEATHER SERVICE MILWAUKEE/SULLIVAN WI
300 PM CDT SAT OCT 21 2017

NOTE: "FAIR" INDICATES FEW OR NO CLOUDS BELOW 12,000 FEET WITH NO
SIGNIFICANT WEATHER AND/OR OBSTRUCTIONS TO VISIBILITY.

WIZ001-002-006>008-014>016-023>028-212100-
NORTHWEST WISCONSIN

CITY           SKY/WX    TMP DP  RH WIND       PRES   REMARKS
SUPERIOR ARPT  CLOUDY    62  60  93 S10G16    29.66S
ASHLAND        CLOUDY    64  57  78 S12G22    29.71F
HAYWARD        CLOUDY    63  57  81 S10       29.73F
SIREN          CLOUDY    64  58  82 S16G22    29.69S
CUMBERLAND     CLOUDY    63  57  82 S15G21    29.72S
RICE LAKE      CLOUDY    65  59  79 S14       29.74F
CHETEK         CLOUDY    67  59  77 S12G25    29.75R
LADYSMITH      CLOUDY    67  57  71 S12G24    29.78S
EAU CLAIRE     CLOUDY    68  58  70 S23G31    29.76S
MENOMONIE      CLOUDY    67  59  73 SE17G28   29.75S
NEW RICHMOND   CLOUDY    64  57  77 S17G25    29.70S
OSCEOLA        CLOUDY    65  60  84 S20G25    29.72R
$$

WIZ003>005-009-010-017-018-212100-
NORTH CENTRAL WISCONSIN

CITY           SKY/WX    TMP DP  RH WIND       PRES   REMARKS
MANITOWISH WTR CLOUDY    65  58  78 S12G20    29.79S
ARBOR VITAE    CLOUDY    66  57  73 S20G30    29.81S
WOODRUFF       CLOUDY    66  57  73 S20G30    29.81S
RHINELANDER    CLOUDY    66  57  72 S8        29.84F
EAGLE RIVER    NOT AVBL
LAND O LAKES   CLOUDY    68  56  63 S16G24    29.83S
PHILLIPS       CLOUDY    65  58  78 S16G22    29.78F
TOMAHAWK       CLOUDY    65  55  71 S5        29.84R
MEDFORD        CLOUDY    64  56  73 S20G29    29.83F
MERRILL        CLOUDY    68  56  65 S9G17     29.85S
$$

WIZ029-030-035-036-043>047-212100-
CENTRAL WISCONSIN

CITY           SKY/WX    TMP DP  RH WIND       PRES   REMARKS
WAUSAU         CLOUDY    69  57  65 SW7       29.84R
MOSINEE        PTSUNNY   70  57  64 S13       29.87R
MARSHFIELD     CLOUDY    68  56  65 SW8       29.84S
STEVENS POINT  PTSUNNY   71  55  56 S15G23    29.86S
WAUPACA        SUNNY     77  56  48 S14G22    29.87S
WAUTOMA        MOSUNNY  N/A N/A N/A S17G24    29.86F
WISC RAPIDS    CLOUDY    74  58  57 S12       29.85F
CAMP DOUGLAS   PTSUNNY   75  59  57 S12G18    29.83F
$$

WIZ011>013-019>022-031-037>040-048>050-212100-
NORTHEAST WISCONSIN

CITY           SKY/WX    TMP DP  RH WIND       PRES   REMARKS
ANTIGO         PTSUNNY   70  56  61 S14       29.86S
SHAWANO        SUNNY     76  54  46 S14       29.86F
OCONTO         SUNNY     69  54  57 SE13G20   29.89S
STURGEON BAY   SUNNY     63  54  72 S21G28    29.93S
GREEN BAY      SUNNY     76  56  49 S16       29.89F
MANITOWOC      SUNNY     62  53  72 S21G30    29.95S
APPLETON       MOSUNNY   73  52  46 S16       29.98
CLINTONVILLE   SUNNY     75  54  46 S16G22    29.86F
OSHKOSH        SUNNY     75  57  53 S17G24    29.88F
$$

WIZ032>034-041-042-053>061-212100-
SOUTHWEST WISCONSIN

CITY           SKY/WX    TMP DP  RH WIND       PRES   REMARKS
LA CROSSE      CLOUDY    69  58  67 SE7       29.81F
SPARTA         CLOUDY    70  58  67 W3        29.83F
VIROQUA        CLOUDY    72  59  64 S8        29.84S
BOSCOBEL       MOSUNNY   80  58  46 S10G23    29.83F HX  80
PRAIRIE DU CHI CLOUDY    76  56  50 SE7       29.81S
PLATTEVILLE    MOSUNNY   77  59  54 S17G25    29.87S
$$

WIZ056-057-062-063-064-067-068-212100-
SOUTH CENTRAL WISCONSIN

CITY           SKY/WX    TMP DP  RH WIND       PRES   REMARKS
REEDSBURG      PTSUNNY   75  59  56 S16G25    29.85F
BARABOO/DELLS  PTSUNNY   73  56  56 S12G24    29.87S
LONE ROCK      MOSUNNY   77  61  57 S12       29.84F
MINERAL POINT  MOSUNNY   77  59  53 S17G28    29.88S
MADISON        MOSUNNY   76  57  51 S25       29.88F
MIDDLETON      MOSUNNY   78  57  49 S18G26    29.89S
WATERTOWN      SUNNY     76  57  52 S21G28    29.91S
MONROE         SUNNY     75  54  46 S25G31    29.90F
JANESVILLE     MOSUNNY   79  54  41 S20G25    29.92F
$$

WIZ051-052-058>065-066-070>072-212100-
SOUTHEAST WISCONSIN

CITY           SKY/WX    TMP DP  RH WIND       PRES   REMARKS
MILWAUKEE      MOSUNNY   74  57  55 SE17      29.95F
WAUKESHA       SUNNY     73  54  49 S14G25    29.95F
MILWAUKEE/TIMM SUNNY     75  52  43 S16       29.94F
RACINE         SUNNY     68  56  65 S17       29.98F
BURLINGTON     SUNNY     78  57  48 S10G20    29.94F
KENOSHA        SUNNY     76  56  49 S17G25    29.97F
FOND DU LAC    SUNNY     77  54  44 S13G21    29.89F
SHEBOYGAN      SUNNY     66  56  70 S15G23    29.94F
WEST BEND      SUNNY     73  54  49 S12G20    29.92F
JUNEAU         SUNNY     75  57  53 S18G25    29.92S
$$

LSZ147-162-212100-
LAKE SUPERIOR

STATION/POSITION TIME  TEMP    WIND        PRES    WAVE
                       AIR SEA DIR/SP/G            HT/PER
                 (UTC) (F)     (DEG/KT/KT) (MB)    (FT/S)
W MID LAKE BUOY  1850   59 52              1006.5S   2/ 4
DEVILS ISLAND    2000   62     180/ 14/ 19 1005.2F
SAXON HARBOR     1940   67     200/  7/ 13 1006.1F
$$

LMZ867-665-643>646-212100-
LAKE MICHIGAN

STATION/POSITION TIME  TEMP    WIND        PRES    WAVE
                       AIR SEA DIR/SP/G            HT/PER
                 (UTC) (F)     (DEG/KT/KT) (MB)    (FT/S)
S GREEN BAY BUOY 2000   64 59  150/ 12/ 14 1012.5S
N MID LAKE BUOY  1950   62 58  180/ 19/ 23 1014.1F   6/ 6
NORTHPORT PIER   1940   61     160/ 13/ 19 1013.5F
KEWAUNEE LAKESHO 1948   52     180/ 11/ 12 1013.3F
SHEBOYGAN LAKESH 2000   56     180/ 19/ 20 1013.8F
PORT WASHINGTON  1940   61     200/  8/ 12 1015.2S
ATWATER BUOY     1839   58 53  160/ 19/ 21 1014.6F
MILWAUKEE LAKESH 1950   59     150/ 18/ 19   N/A
S MID LAKE BUOY  1950   64 61  150/ 19/ 23 1015.9F   4/ 5
KENOSHA   LAKESH 2000   60     170/ 15/ 16 1014.9
$$

TC  - TEMPERATURE IN CELSIUS
VSB - VISIBILITY IN STATUTE MILES
WCI - WIND CHILL INDEX
HX  - HEAT INDEX





USA.gov is the U.S. government's official web portal to all federal, state and local government web resources and services.